Theta_e
313 313 314 314 314 315 315 315 315 314 314 313 314 314 314 312 309 301 298 304 309 315 314 307 302 302 309 310 315 316 307 304 305 306 308 306 303 301 300 301 300 302 301 302 305
311 311 312 313 313 314 314 314 314 314 314 314 313 314 314 312 300 296 301 309 312 313 307 303 300 306 305 308 311 310 305 304 308 310 307 303 305 302 299 300 299 299 300 301 302
311 311 311 312 313 313 314 314 314 314 314 313 313 313 314 309 296 295 305 310 310 310 306 305 308 307 303 307 306 309 304 305 301 301 302 303 300 300 299 302 304 302 301 299 300
311 311 311 311 312 313 313 313 313 314 313 313 312 313 312 300 290 296 306 307 307 304 302 304 305 303 302 301 302 301 299 299 297 295 297 298 299 297 299 305 298 302 301 300 299
311 311 311 311 312 313 313 313 313 312 313 313 312 313 301 293 293 298 305 303 300 300 300 303 304 304 300 301 300 302 297 295 293 292 293 293 295 297 298 302 302 297 297 299 299
311 311 311 311 311 312 313 313 312 311 312 312 312 312 296 290 296 298 298 299 298 299 299 300 303 304 300 297 298 296 295 294 293 293 292 290 295 291 299 300 300 297 296 298 298
311 311 311 311 311 312 312 311 311 311 311 311 311 297 295 293 297 299 298 297 298 297 297 297 298 299 298 294 293 294 293 292 292 292 291 291 290 291 298 294 297 296 296 297 298
311 311 311 311 311 311 312 310 309 309 308 309 305 296 294 296 299 297 298 298 300 299 297 297 299 295 294 294 292 291 292 292 293 291 291 290 290 296 298 294 294 296 296 297 297
312 312 311 311 311 310 310 308 307 305 303 305 299 296 292 297 295 296 297 296 297 297 297 297 297 293 291 292 290 290 289 289 289 290 290 289 291 297 295 295 295 296 297 297 297
313 312 312 312 312 310 307 303 308 301 299 297 296 293 293 291 294 295 297 296 295 295 295 295 294 292 291 289 287 288 286 288 289 288 288 289 288 294 296 294 295 296 297 297 297
313 312 312 312 309 306 304 302 300 299 297 294 292 290 290 294 295 294 296 295 294 293 290 291 289 286 289 290 288 288 288 288 289 287 286 289 290 293 296 297 296 296 297 297 297
313 312 311 311 307 304 304 298 294 295 291 291 291 290 291 292 289 292 297 292 292 289 289 288 286 288 288 287 286 287 287 288 288 286 286 290 289 293 296 297 297 298 297 298 298
313 312 311 309 304 302 298 295 299 299 291 290 291 290 291 292 289 290 293 291 290 288 288 288 286 287 286 285 285 287 287 287 286 287 288 287 290 293 296 294 296 298 297 298 300
313 312 310 307 302 298 296 298 300 299 290 291 288 290 291 293 289 292 292 291 288 287 287 287 286 285 285 285 286 285 286 285 284 286 286 287 285 293 297 294 293 295 295 296 297
314 312 309 302 300 298 296 299 300 298 286 289 287 293 292 289 290 290 293 291 287 285 286 285 283 283 283 284 284 283 285 285 284 285 284 285 284 292 294 293 294 295 298 297 298
314 312 308 308 308 299 300 300 299 289 285 289 287 286 287 288 288 290 291 293 291 287 286 284 286 285 284 284 284 285 284 284 284 285 282 286 284 290 294 294 293 294 296 296 296
312 313 306 304 308 301 301 299 287 285 289 290 288 286 286 286 285 287 287 287 287 286 287 283 283 284 284 283 284 284 284 286 284 281 283 282 281 289 294 293 294 294 295 296 296
310 312 305 304 304 302 301 295 282 288 288 285 285 284 284 286 285 285 285 285 288 287 287 284 283 283 285 284 284 283 285 285 282 282 283 281 280 289 295 294 295 295 296 296 295
309 303 301 303 302 299 293 285 288 290 291 285 283 283 286 283 284 285 285 287 290 288 287 285 283 282 282 283 284 283 281 285 283 277 279 286 289 293 296 294 295 294 294 295 296
300 300 301 302 297 296 286 288 290 296 288 286 286 288 286 285 283 284 287 290 287 288 287 289 284 280 281 283 284 283 284 281 283 280 279 284 284 287 292 292 293 294 294 296 297
300 294 296 299 296 288 286 286 289 290 290 287 288 289 287 286 286 287 289 290 288 284 286 287 288 279 280 279 281 279 281 281 282 283 281 281 285 294 294 295 294 295 296 297 297
298 286 296 295 286 285 286 289 292 289 288 289 287 289 288 287 286 285 289 289 289 287 284 287 285 281 282 281 281 281 283 284 283 282 281 280 283 296 293 293 295 296 295 297 297
289 292 293 292 285 286 285 284 286 289 292 286 286 292 294 290 285 287 288 287 289 287 287 286 287 284 280 280 279 278 281 283 284 282 282 281 285 290 291 292 293 294 296 295 296
288 284 286 286 286 286 288 288 287 287 287 289 286 285 284 285 289 287 285 285 287 287 285 288 288 286 283 287 285 277 280 281 282 282 282 283 286 292 293 292 294 294 295 296 296
288 284 286 282 282 285 286 287 286 286 285 287 285 287 283 283 285 284 285 284 283 285 285 285 281 282 283 284 283 285 281 280 278 281 282 286 286 290 293 294 297 298 297 296 295
284 284 287 285 286 285 285 284 283 286 287 284 284 291 288 285 288 288 288 285 285 283 283 282 283 279 277 281 281 279 281 281 281 282 283 285 285 293 295 295 295 295 296 295 295
290 291 285 282 284 283 283 285 286 289 289 291 290 287 289 288 292 292 293 291 289 283 281 280 281 277 277 280 278 275 278 281 282 284 284 281 287 292 292 293 293 294 294 294 295
Wind_Speed
13 13 13 12 12 12 12 11 10 10 9 9 10 10 9 10 8 7 3 6 8 16 12 7 7 8 9 7 5 3 8 11 14 11 11 11 13 5 3 4 4 6 2 5 14
13 13 13 13 13 12 12 12 11 11 10 10 9 9 9 9 8 3 3 11 12 10 7 5 5 10 7 7 5 10 11 11 5 1 3 11 13 10 7 11 11 10 7 8 12
13 13 13 13 13 13 13 12 12 11 10 10 9 9 9 6 5 1 6 14 11 9 9 6 3 6 6 7 5 7 9 4 4 2 5 8 8 3 8 11 11 11 14 13 14
14 15 15 15 15 14 14 13 12 12 10 9 10 7 3 4 3 2 12 13 9 7 7 5 6 7 7 10 3 7 1 3 3 2 2 5 1 6 14 8 5 5 6 16 17
15 15 16 17 16 16 16 15 13 12 9 7 8 7 2 4 2 6 12 8 2 3 6 6 8 4 8 4 4 7 4 2 2 2 1 2 8 10 14 16 8 4 7 16 16
15 16 17 18 18 18 18 16 14 11 9 6 6 7 4 6 2 7 10 3 4 4 2 3 3 1 4 2 4 1 3 3 3 2 2 4 7 1 7 10 15 12 13 15 17
16 17 18 18 19 19 18 17 15 9 6 6 5 3 5 1 3 7 7 2 4 2 1 2 2 1 2 4 1 5 2 3 7 4 2 2 10 20 18 3 14 17 15 16 16
16 18 18 19 20 19 18 17 13 9 5 4 2 2 3 1 3 3 7 1 3 3 4 3 3 6 2 6 4 4 3 5 7 5 4 2 11 4 13 13 13 17 17 16 18
16 17 19 20 21 21 18 16 8 3 1 3 3 3 2 1 2 4 6 3 4 3 3 1 2 3 3 6 5 6 5 9 4 5 1 10 10 7 4 10 14 15 16 17 16
15 17 19 21 21 19 17 6 5 5 4 2 1 3 3 1 3 4 2 4 2 2 1 1 0 3 5 7 4 6 6 4 8 5 7 10 21 17 8 9 12 13 15 16 17
15 18 20 21 22 17 9 3 4 5 1 3 3 2 1 4 1 1 3 2 2 2 4 2 5 9 12 9 4 5 5 7 4 3 4 14 19 19 16 16 17 18 15 15 18
15 18 19 21 16 14 6 5 4 3 6 2 1 2 1 1 2 1 5 4 5 6 3 2 9 3 4 0 4 5 7 10 3 2 4 10 18 22 20 21 21 19 18 19 18
14 16 20 21 8 3 7 5 4 4 6 3 1 2 2 3 2 3 4 1 3 5 7 11 3 2 2 3 5 6 8 3 4 4 6 10 12 10 4 6 11 16 14 16 17
12 13 17 25 2 4 3 2 2 3 2 4 4 3 3 2 4 1 1 1 2 4 2 5 4 3 4 4 4 6 2 1 1 3 5 2 9 10 6 8 9 9 11 11 12
11 9 12 11 7 4 5 4 3 4 5 2 3 2 0 4 4 4 2 3 2 4 2 2 3 4 4 2 2 3 2 2 2 4 5 7 6 5 2 6 6 3 10 10 10
12 7 7 4 3 2 3 3 4 5 9 2 1 2 2 2 2 4 3 3 2 3 2 2 1 1 3 4 3 7 2 1 1 3 5 6 5 4 7 2 5 4 7 6 7
16 9 3 0 5 3 2 4 5 4 1 2 2 3 3 4 4 5 6 8 7 4 7 4 4 4 2 4 4 2 2 2 3 3 5 2 4 12 3 5 3 8 6 7 7
21 8 5 2 3 3 2 2 6 3 6 1 3 3 5 6 3 4 3 5 9 5 4 7 6 10 9 2 1 7 3 4 5 4 2 2 8 6 2 4 2 4 6 7 8
10 1 2 4 7 3 3 6 7 7 1 4 3 5 4 3 2 7 9 6 8 13 10 7 4 4 1 1 2 7 7 3 1 2 3 7 9 13 7 14 12 10 10 10 9
6 2 4 6 6 3 3 11 8 8 4 2 5 8 5 5 6 7 8 4 6 6 2 1 2 1 4 2 4 5 2 4 4 4 6 5 6 12 3 6 6 11 14 11 10
4 4 2 5 4 2 11 8 7 7 8 7 6 5 6 5 7 6 4 3 3 5 3 1 2 4 2 11 10 6 5 3 2 3 4 5 5 3 3 6 4 3 8 10 9
4 6 3 4 4 4 11 6 6 6 2 6 5 10 10 6 7 8 8 6 8 12 8 6 2 6 6 3 2 2 6 11 6 7 5 3 11 1 1 2 3 6 6 5 5
4 4 2 1 10 11 3 5 5 8 11 8 9 15 17 18 7 10 7 4 12 11 10 9 5 3 4 4 1 7 9 7 2 1 9 5 6 2 4 8 9 9 6 6 7
4 5 2 3 2 6 15 15 13 7 6 8 7 4 2 12 14 4 7 4 7 7 3 5 4 7 13 4 6 6 8 13 8 7 7 19 19 12 7 9 9 9 10 10 11
5 6 4 4 7 13 10 12 20 15 4 5 5 17 11 7 16 17 9 3 5 6 5 4 9 6 12 6 4 4 5 16 19 24 14 18 24 18 18 19 17 12 12 10 11
4 5 3 8 8 12 17 21 28 27 14 10 15 18 20 17 18 16 17 9 9 8 9 4 5 3 10 8 9 9 13 16 21 19 29 22 32 14 16 13 18 20 17 14 14
6 10 7 8 9 13 16 18 22 23 17 20 18 18 24 27 21 18 13 4 5 7 12 7 5 5 19 7 5 10 29 17 19 21 20 24 32 13 20 20 21 21 17 15 15
Wind_Direction
13 9 5 1 360 355 347 346 340 333 324 317 319 321 325 318 290 236 252 338 304 311 302 283 245 204 205 189 236 254 241 241 238 239 223 153 195 173 51 214 196 186 274 78 131
8 4 357 353 352 346 340 339 334 331 323 316 317 318 314 324 269 254 77 315 311 307 275 240 174 174 176 189 198 220 235 253 20 326 231 181 208 172 205 202 214 210 187 155 158
4 358 351 348 342 339 336 332 330 326 320 314 312 314 300 293 250 158 360 325 316 288 254 275 168 226 180 201 181 195 250 85 89 67 291 178 218 196 227 233 224 217 202 186 186
0 354 346 342 339 335 332 326 324 319 315 317 310 327 328 217 244 38 342 324 317 267 236 222 211 197 195 195 207 228 251 314 122 128 180 189 2 233 233 243 27 273 235 183 197
353 350 345 338 334 332 328 324 322 318 306 297 304 314 236 222 253 356 334 325 264 249 255 235 216 200 202 186 194 243 171 150 138 154 211 304 242 253 254 244 219 240 218 192 202
349 346 343 337 333 331 327 320 319 317 302 295 304 313 233 245 22 340 338 327 9 254 236 276 308 326 132 163 254 74 175 156 191 170 200 264 257 275 236 235 223 206 209 207 206
345 343 340 336 332 329 325 320 315 309 301 299 303 287 250 335 353 351 359 353 341 308 193 50 7 287 158 137 105 142 193 248 210 191 229 278 251 236 238 199 217 209 215 212 212
343 338 337 334 330 326 321 318 305 293 279 256 280 273 277 40 337 13 340 254 51 50 65 55 60 98 0 124 146 214 249 228 125 185 136 197 262 185 209 201 219 216 216 213 216
340 335 334 332 329 324 321 315 284 264 270 171 216 263 243 102 316 351 360 351 325 50 62 60 45 86 169 197 180 210 255 220 175 200 185 217 277 90 160 223 235 227 223 219 218
335 334 333 331 329 325 321 288 270 238 216 199 162 250 149 53 323 332 20 332 323 130 137 42 86 219 217 210 230 195 226 220 245 150 219 234 257 270 235 233 240 240 230 226 221
332 334 335 333 334 337 327 250 227 197 89 308 101 307 70 330 240 49 1 249 218 235 214 81 225 221 224 234 340 321 270 254 125 125 255 241 261 269 268 255 240 237 232 225 225
329 332 335 336 334 337 309 39 45 343 291 177 242 243 129 338 228 95 326 222 204 210 137 185 238 54 66 354 249 246 259 254 125 162 261 293 280 277 262 248 242 242 236 233 230
325 332 333 336 320 358 48 47 336 311 257 162 178 232 149 225 180 139 319 214 247 213 211 242 57 118 188 193 218 235 250 249 302 301 239 292 265 242 212 251 254 243 249 249 235
314 330 339 328 267 351 53 18 303 299 329 202 181 142 188 203 194 78 47 336 147 238 191 262 92 195 205 220 221 243 51 105 310 308 294 318 292 286 248 221 217 226 214 217 219
299 322 341 17 317 348 352 328 287 241 320 68 135 40 251 243 122 137 132 157 200 146 185 152 177 182 213 28 329 40 45 36 353 281 312 175 249 246 167 249 177 198 205 193 194
284 285 328 240 270 18 321 300 251 35 248 175 128 141 210 221 203 127 167 111 74 142 80 64 116 305 36 74 39 127 107 88 238 266 251 157 229 261 234 193 141 140 164 170 183
333 255 244 309 318 136 291 271 11 198 1 247 219 189 234 190 199 219 187 181 175 141 200 164 182 147 206 145 113 233 198 234 222 199 254 124 216 266 220 174 165 146 151 162 162
327 248 202 241 159 202 255 12 231 241 248 58 155 159 220 160 205 190 212 236 231 208 140 199 229 181 156 264 28 188 275 254 262 225 62 131 232 241 40 97 182 240 220 162 174
338 25 226 220 160 189 101 211 220 205 136 183 166 211 233 190 273 202 221 233 206 200 185 173 198 128 165 146 232 150 212 7 318 121 274 233 239 275 246 228 227 213 194 190 177
309 266 213 133 138 101 135 241 220 219 141 217 242 206 223 178 194 203 195 205 194 205 62 315 145 327 106 199 222 262 37 174 205 245 248 212 269 257 219 218 205 197 201 193 184
250 247 86 155 140 78 224 221 226 219 172 212 250 249 246 193 203 212 226 249 186 132 87 105 156 115 168 200 183 172 208 201 339 233 259 281 244 342 303 180 175 164 187 196 189
288 248 121 219 153 202 236 193 180 190 242 251 259 260 249 206 218 227 218 217 164 156 169 180 176 194 199 110 335 296 231 185 216 193 233 306 251 331 141 235 217 185 177 182 184
272 257 121 309 229 222 184 257 237 195 211 194 229 231 236 246 243 206 208 137 175 180 168 181 208 216 195 173 149 220 200 228 275 333 202 213 251 91 216 225 224 239 239 207 206
284 269 176 208 292 249 244 239 232 202 233 223 188 73 186 239 226 246 212 179 191 208 110 165 213 207 242 211 119 194 203 204 200 217 223 227 255 248 236 238 231 212 227 238 231
217 244 235 219 241 238 238 271 260 232 218 234 236 214 187 230 238 231 215 175 188 200 187 188 235 193 247 259 202 215 173 194 207 228 228 247 243 236 252 269 277 254 273 274 268
257 247 288 277 293 221 226 235 243 253 232 219 230 221 217 230 222 245 224 208 227 167 189 181 241 108 257 222 223 257 240 215 217 230 238 255 265 257 277 275 261 265 269 271 268
233 261 276 267 267 240 244 245 247 250 238 245 250 244 237 227 237 252 266 193 207 187 192 177 211 170 258 191 173 267 232 217 226 226 224 234 247 251 254 247 254 256 258 260 254